Bookmark and Share
Track history (hours):
 

Jennifer

More information available from US FCC via Universal Licensing System and Coast Guard Vessel Documentation Center.

Last reported at 2014-Apr-17 10:32 UTC. Time now 2014-Apr-18 13:09 UTC.
Position N 29°55' W 089°58'.

Length 18 m; draft 3 m.

Type: Tug. MMSI: 367474690.

NotesDate/timePositionNaut miles runAvg speedWind from/ knotsBaromVisibWave heightAir tempDewpointWater temp
2014-Apr-17 10:32N 29°55' W 089°58'6 2.4
2014-Apr-17 08:05N 29°50' W 089°60'17 2.7
2014-Apr-17 01:33N 29°58' W 090°18'0 0.0
2014-Apr-17 00:29N 29°58' W 090°18'0 0.0
2014-Apr-16 23:30N 29°58' W 090°18'0 0.0
2014-Apr-16 22:32N 29°58' W 090°18'41 1.2
2014-Apr-15 11:32N 29°35' W 090°58'5 4.9
2014-Apr-15 10:34N 29°37' W 091°03'0 0.0
2014-Apr-15 07:34N 29°37' W 091°03'4 4.1
2014-Apr-15 06:34N 29°39' W 091°07'5 5.0
2014-Apr-15 05:34N 29°41' W 091°12'10 5.0
2014-Apr-15 03:34N 29°39' W 091°23'5 4.6
2014-Apr-15 02:33N 29°41' W 091°28'4 0.1
2014-Apr-12 23:31N 29°43' W 091°32'7 7.5
2014-Apr-12 22:33N 29°39' W 091°25'7 7.0
2014-Apr-12 21:33N 29°39' W 091°17'6 6.1
2014-Apr-12 20:33N 29°41' W 091°10'5 4.7
2014-Apr-12 19:33N 29°38' W 091°06'6 5.7
2014-Apr-12 18:33N 29°37' W 090°59'34 1.3
2014-Apr-11 17:33N 30°03' W 090°35'4 0.9
2014-Apr-11 12:25N 30°03' W 090°40'0 0.0
2014-Apr-11 11:33N 30°03' W 090°40'0 0.0
2014-Apr-11 10:33N 30°03' W 090°40'0 0.0
2014-Apr-11 09:33N 30°03' W 090°40'0 0.0
2014-Apr-11 08:33N 30°03' W 090°40'0 0.0
2014-Apr-11 07:33N 30°03' W 090°40'0 0.0
2014-Apr-11 06:33N 30°03' W 090°40'0 0.0
2014-Apr-11 05:34N 30°03' W 090°40'0 0.0
2014-Apr-11 04:33N 30°03' W 090°40'1 1.3
2014-Apr-11 03:33N 30°03' W 090°38'5 5.0
2014-Apr-11 02:34N 30°03' W 090°33'4 4.2
2014-Apr-11 01:33N 30°01' W 090°28'5 5.1
2014-Apr-11 00:33N 29°58' W 090°24'5 4.8
2014-Apr-10 23:29N 29°57' W 090°18'  

Dump ship's entire track history

sailing weather and tide predictions

Jennifer — WDF6480 — position and weather